| time (UTC) | temp F | wind direction | speed MPH | gust MPH | rain 1hr in | rain 24hr in | rain mn in | humidity % | barometer mb |
| 20260901040049 | 61 | 271 | 0.0 | 6.0 | 0.00 | 0.00 | 0.00 | 60 | 1009.8 |
| 20260901034551 | 64 | 255 | 3.0 | 5.0 | 0.00 | 0.00 | 0.00 | 53 | 1009.3 |
| 20260901033048 | 64 | 190 | 1.0 | 6.0 | 0.00 | 0.00 | 0.00 | 48 | 1009.2 |
| 20260901031550 | 64 | 169 | 2.0 | 7.0 | 0.00 | 0.00 | 0.00 | 49 | 1009.3 |
| 20260901030047 | 64 | 175 | 3.0 | 10.0 | 0.00 | 0.00 | 0.00 | 49 | 1009.2 |
| 20260901024546 | 65 | 194 | 4.0 | 7.0 | 0.00 | 0.00 | 0.00 | 48 | 1009.2 |
| 20260901023048 | 65 | 125 | 5.0 | 10.0 | 0.00 | 0.00 | 0.00 | 46 | 1009.2 |
| 20260901021553 | 66 | 153 | 3.0 | 10.0 | 0.00 | 0.00 | 0.00 | 44 | 1009.1 |
| 20260901020049 | 67 | 147 | 3.0 | 7.0 | 0.00 | 0.00 | 0.00 | 42 | 1009.2 |
| 20260901014548 | 66 | 150 | 3.0 | 7.0 | 0.00 | 0.00 | 0.00 | 44 | 1009.0 |
| 20260901013059 | 67 | 141 | 2.0 | 7.0 | 0.00 | 0.00 | 0.00 | 46 | 1008.8 |
| 20260901011549 | 68 | 90 | 4.0 | 7.0 | 0.00 | 0.00 | 0.00 | 44 | 1008.9 |
| 20260901010051 | 69 | 184 | 1.0 | 5.0 | 0.00 | 0.00 | 0.00 | 41 | 1009.3 |
| 20260901004550 | 69 | 244 | 5.0 | 9.0 | 0.00 | 0.00 | 0.00 | 41 | 1009.4 |
| 20260901003054 | 69 | 177 | 5.0 | 11.0 | 0.00 | 0.00 | 0.00 | 40 | 1009.4 |
| 20260901001546 | 70 | 219 | 7.0 | 15.0 | 0.00 | 0.00 | 0.00 | 39 | 1009.5 |
| 20260901000044 | 73 | 180 | 5.0 | 12.0 | 0.00 | 0.00 | 0.00 | 36 | 1009.1 |
| 20260831234543 | 75 | 178 | 2.0 | 4.0 | 0.00 | 0.00 | 0.00 | 38 | 1008.4 |
| 20260831233040 | 77 | 188 | 3.0 | 6.0 | 0.00 | 0.00 | 0.00 | 28 | 1008.4 |
| 20260831231538 | 77 | 201 | 3.0 | 8.0 | 0.00 | 0.00 | 0.00 | 27 | 1008.4 |
| 20260831230038 | 77 | 259 | 1.0 | 4.0 | 0.00 | 0.00 | 0.00 | 26 | 1008.5 |
| 20260831224536 | 78 | 248 | 3.0 | 5.0 | 0.00 | 0.00 | 0.00 | 26 | 1008.6 |
| 20260831223040 | 78 | 229 | 1.0 | 5.0 | 0.00 | 0.00 | 0.00 | 27 | 1008.6 |
| 20260831221536 | 78 | 232 | 3.0 | 9.0 | 0.00 | 0.00 | 0.00 | 26 | 1008.6 |
| 20260831220033 | 78 | 267 | 1.0 | 6.0 | 0.00 | 0.00 | 0.00 | 27 | 1009.0 |
| 20260831214532 | 78 | 149 | 2.0 | 8.0 | 0.00 | 0.00 | 0.00 | 26 | 1009.1 |
| 20260831213038 | 78 | 218 | 2.0 | 9.0 | 0.00 | 0.00 | 0.00 | 25 | 1009.3 |
| 20260831211527 | 78 | 246 | 6.0 | 12.0 | 0.00 | 0.00 | 0.00 | 26 | 1009.5 |
| 20260831210025 | 78 | 254 | 2.0 | 11.0 | 0.00 | 0.00 | 0.00 | 26 | 1009.9 |
| 20260831204521 | 77 | 98 | 2.0 | 8.0 | 0.00 | 0.00 | 0.00 | 28 | 1010.1 |
| 20260831203017 | 76 | 190 | 2.0 | 5.0 | 0.00 | 0.00 | 0.00 | 28 | 1010.2 |
| 20260831201522 | 76 | 242 | 5.0 | 15.0 | 0.00 | 0.00 | 0.00 | 30 | 1010.5 |
| 20260831200019 | 76 | 11 | 5.0 | 9.0 | 0.00 | 0.00 | 0.00 | 31 | 1010.8 |
| 20260831194509 | 74 | 348 | 4.0 | 10.0 | 0.00 | 0.00 | 0.00 | 30 | 1011.0 |
| 20260831193010 | 74 | 300 | 3.0 | 5.0 | 0.00 | 0.00 | 0.00 | 30 | 1011.3 |
| 20260831191503 | 73 | 330 | 1.0 | 6.0 | 0.00 | 0.00 | 0.00 | 32 | 1011.4 |
| 20260831190105 | 71 | 244 | 1.0 | 7.0 | 0.00 | 0.00 | 0.00 | 39 | 1011.7 |
| 20260831184559 | 70 | 292 | 2.0 | 4.0 | 0.00 | 0.00 | 0.00 | 43 | 1012.0 |
| 20260831183051 | 68 | 301 | 3.0 | 6.0 | 0.00 | 0.00 | 0.00 | 45 | 1012.3 |
| 20260831181550 | 67 | 303 | 2.0 | 5.0 | 0.00 | 0.00 | 0.00 | 47 | 1012.7 |
| 20260831180042 | 65 | 296 | 1.0 | 5.0 | 0.00 | 0.00 | 0.00 | 51 | 1013.1 |
| 20260831174543 | 64 | 298 | 2.0 | 5.0 | 0.00 | 0.00 | 0.00 | 52 | 1013.3 |
| 20260831173036 | 62 | 298 | 1.0 | 4.0 | 0.00 | 0.00 | 0.00 | 56 | 1013.4 |
| 20260831171535 | 61 | 298 | 1.0 | 5.0 | 0.00 | 0.00 | 0.00 | 58 | 1013.4 |
| 20260831170028 | 59 | 304 | 0.0 | 4.0 | 0.00 | 0.00 | 0.00 | 59 | 1013.4 |
| 20260831164523 | 58 | 263 | 1.0 | 4.0 | 0.00 | 0.00 | 0.00 | 60 | 1013.6 |
| 20260831163028 | 57 | 263 | 1.0 | 4.0 | 0.00 | 0.00 | 0.00 | 61 | 1013.7 |
| 20260831161516 | 55 | 263 | 1.0 | 4.0 | 0.00 | 0.00 | 0.00 | 64 | 1013.7 |
| 20260831160012 | 53 | 262 | 1.0 | 6.0 | 0.00 | 0.00 | 0.00 | 64 | 1013.8 |
| 20260831154508 | 51 | 243 | 0.0 | 3.0 | 0.00 | 0.00 | 0.00 | 65 | 1013.9 |
| 20260831153006 | 49 | 243 | 0.0 | 3.0 | 0.00 | 0.00 | 0.00 | 72 | 1014.0 |
| 20260831151604 | 48 | 243 | 1.0 | 4.0 | 0.00 | 0.00 | 0.00 | 77 | 1014.1 |
| 20260831150057 | 47 | 243 | 2.0 | 5.0 | 0.00 | 0.00 | 0.00 | 74 | 1014.2 |
| 20260831144626 | 46 | 205 | 0.0 | 0.0 | 0.00 | 0.15 | 0.00 | 74 | 1014.2 |
| 20260831143051 | 46 | 204 | 0.0 | 0.0 | 0.00 | 0.15 | 0.00 | 75 | 1014.1 |
| 20260831141548 | 45 | 204 | 0.0 | 0.0 | 0.00 | 0.15 | 0.00 | 79 | 1014.1 |
| 20260831140045 | 43 | 204 | 0.0 | 0.0 | 0.00 | 0.15 | 0.00 | 82 | 1014.1 |
| 20260831134545 | 41 | 204 | 0.0 | 0.0 | 0.00 | 0.16 | 0.00 | 83 | 1014.1 |
| 20260831133048 | 40 | 204 | 0.0 | 0.0 | 0.00 | 0.16 | 0.00 | 82 | 1014.0 |
| 20260831131541 | 39 | 204 | 0.0 | 2.0 | 0.00 | 0.16 | 0.00 | 80 | 1014.0 |
| 20260831130041 | 39 | 204 | 0.0 | 2.0 | 0.00 | 0.16 | 0.00 | 81 | 1013.9 |
| 20260831124539 | 38 | 204 | 1.0 | 2.0 | 0.00 | 0.16 | 0.00 | 82 | 1013.6 |
| 20260831123037 | 39 | 204 | 1.0 | 3.0 | 0.00 | 0.16 | 0.00 | 79 | 1013.3 |
| 20260831121543 | 39 | 204 | 2.0 | 3.0 | 0.00 | 0.16 | 0.00 | 81 | 1013.3 |
| 20260831120038 | 39 | 204 | 0.0 | 1.0 | 0.00 | 0.16 | 0.00 | 82 | 1013.3 |
| 20260831114547 | 39 | 204 | 2.0 | 4.0 | 0.00 | 0.16 | 0.00 | 81 | 1013.2 |
| 20260831113027 | 40 | 203 | 0.0 | 2.0 | 0.00 | 0.16 | 0.00 | 79 | 1012.9 |
| 20260831111524 | 41 | 203 | 2.0 | 3.0 | 0.00 | 0.16 | 0.00 | 76 | 1012.9 |
| 20260831110023 | 42 | 203 | 2.0 | 5.0 | 0.00 | 0.16 | 0.00 | 75 | 1012.7 |
| 20260831104531 | 41 | 203 | 1.0 | 3.0 | 0.00 | 0.16 | 0.00 | 77 | 1012.8 |
| 20260831103020 | 41 | 203 | 1.0 | 4.0 | 0.00 | 0.16 | 0.00 | 74 | 1012.8 |
| 20260831101516 | 42 | 203 | 4.0 | 5.0 | 0.00 | 0.16 | 0.00 | 73 | 1012.7 |
| 20260831100014 | 42 | 203 | 0.0 | 0.0 | 0.00 | 0.16 | 0.00 | 73 | 1012.5 |
| 20260831094512 | 42 | 203 | 0.0 | 3.0 | 0.00 | 0.16 | 0.00 | 75 | 1012.3 |
| 20260831093018 | 42 | 203 | 0.0 | 2.0 | 0.00 | 0.16 | 0.00 | 75 | 1012.2 |
| 20260831091509 | 43 | 203 | 2.0 | 4.0 | 0.00 | 0.16 | 0.00 | 75 | 1012.1 |
| 20260831090009 | 43 | 203 | 2.0 | 3.0 | 0.00 | 0.16 | 0.00 | 74 | 1012.2 |
| 20260831084505 | 43 | 203 | 0.0 | 4.0 | 0.00 | 0.16 | 0.00 | 73 | 1012.2 |
| 20260831083005 | 44 | 203 | 2.0 | 4.0 | 0.00 | 0.16 | 0.00 | 74 | 1012.1 |
| 20260831081505 | 44 | 203 | 1.0 | 5.0 | 0.00 | 0.16 | 0.00 | 74 | 1012.1 |
| 20260831080002 | 44 | 203 | 2.0 | 4.0 | 0.00 | 0.16 | 0.00 | 74 | 1012.2 |
| 20260831074607 | 44 | 203 | 1.0 | 4.0 | 0.00 | 0.16 | 0.00 | 73 | 1012.1 |
| 20260831073101 | 45 | 203 | 1.0 | 4.0 | 0.00 | 0.16 | 0.00 | 73 | 1012.0 |
| 20260831071608 | 44 | 203 | 2.0 | 5.0 | 0.00 | 0.16 | 0.00 | 73 | 1011.9 |
| 20260831070056 | 45 | 203 | 1.0 | 6.0 | 0.00 | 0.16 | 0.00 | 70 | 1011.7 |
| 20260831064554 | 46 | 203 | 2.0 | 5.0 | 0.00 | 0.20 | 0.00 | 70 | 1011.5 |
| 20260831063053 | 45 | 203 | 1.0 | 3.0 | 0.00 | 0.20 | 0.00 | 70 | 1011.4 |
| 20260831061550 | 46 | 203 | 2.0 | 6.0 | 0.00 | 0.20 | 0.00 | 70 | 1011.3 |
| 20260831060058 | 44 | 298 | 2.0 | 4.0 | 0.00 | 0.20 | 0.00 | 72 | 1011.3 |
| 20260831054542 | 46 | 234 | 3.0 | 7.0 | 0.00 | 0.20 | 0.20 | 68 | 1011.1 |
| 20260831053038 | 46 | 214 | 1.0 | 4.0 | 0.00 | 0.20 | 0.20 | 66 | 1011.0 |
| 20260831051533 | 48 | 214 | 3.0 | 5.0 | 0.00 | 0.20 | 0.20 | 62 | 1010.8 |
| 20260831050032 | 48 | 177 | 2.0 | 5.0 | 0.00 | 0.20 | 0.20 | 63 | 1010.5 |
| 20260831044532 | 48 | 177 | 4.0 | 6.0 | 0.00 | 0.20 | 0.20 | 64 | 1010.5 |
| 20260831043037 | 48 | 176 | 3.0 | 5.0 | 0.00 | 0.20 | 0.20 | 64 | 1010.4 |
| 20260831041527 | 50 | 175 | 5.0 | 7.0 | 0.00 | 0.20 | 0.20 | 57 | 1010.5 |